CW4141 Weather Reports


Display with metric or nautical units.
time (UTC)temp
F
wind
direction
speed
MPH
gust
MPH
rain 1hr
in
rain 24hr
in
rain mn
in
humidity
%
barometer
mb
20260510204557 90 0 0.0 7.0 0.00 0.00 0.00 31 1015.7
20260510204539 90 215 1.0 7.0 0.00 0.00 0.00 31 1010.0
20260510203057 90 168 0.0 5.0 0.00 0.00 0.00 32 1015.9
20260510203036 90 168 1.0 5.0 0.00 0.00 0.00 33 1010.2
20260510201557 89 0 0.0 5.0 0.00 0.00 0.00 32 1016.0
20260510201538 89 199 0.0 5.0 0.00 0.00 0.00 32 1010.2
20260510200111 89 220 0.0 7.0 0.00 0.00 0.00 31 1016.0
20260510200032 89 223 1.0 6.0 0.00 0.00 0.00 32 1010.2
20260510194602 88 227 0.0 7.0 0.00 0.00 0.00 34 1016.0
20260510194531 88 227 0.0 5.0 0.00 0.00 0.00 34 1010.3
20260510193103 88 0 0.0 4.0 0.00 0.00 0.00 34 1016.1
20260510193030 88 209 0.0 4.0 0.00 0.00 0.00 34 1010.3
20260510191554 88 0 0.0 4.0 0.00 0.00 0.00 35 1015.8
20260510191527 88 203 0.0 4.0 0.00 0.00 0.00 36 1010.3
20260510190055 87 0 0.0 3.0 0.00 0.00 0.00 35 1016.0
20260510190026 87 207 0.0 3.0 0.00 0.00 0.00 36 1010.4
20260510184557 87 207 0.0 3.0 0.00 0.00 0.00 35 1016.0
20260510184531 87 207 0.0 3.0 0.00 0.00 0.00 36 1010.5
20260510183053 87 0 1.0 5.0 0.00 0.00 0.00 33 1016.1
20260510183018 87 134 1.0 4.0 0.00 0.00 0.00 34 1010.5
20260510181553 86 0 0.0 3.0 0.00 0.00 0.00 34 1016.0
20260510181514 86 133 0.0 2.0 0.00 0.00 0.00 34 1010.5
20260510180054 85 0 0.0 3.0 0.00 0.00 0.00 38 1016.1
20260510180017 85 133 0.0 2.0 0.00 0.00 0.00 39 1010.5
20260510174605 84 0 0.0 5.0 0.00 0.00 0.00 38 1016.0
20260510174509 84 132 0.0 5.0 0.00 0.00 0.00 39 1010.4
20260510173053 83 0 0.0 0.0 0.00 0.00 0.00 36 1015.9
20260510173005 83 130 0.0 0.0 0.00 0.00 0.00 37 1010.3
20260510171553 82 0 0.0 0.0 0.00 0.00 0.00 38 1015.9
20260510171500 82 136 0.0 0.0 0.00 0.00 0.00 41 1010.2
20260510170056 80 136 0.0 0.0 0.00 0.00 0.00 43 1010.2
20260510170050 80 0 0.0 0.0 0.00 0.00 0.00 42 1015.7
20260510164601 78 0 0.0 0.0 0.00 0.00 0.00 44 1015.8
20260510164553 78 136 0.0 0.0 0.00 0.00 0.00 45 1010.2
20260510163053 75 0 0.0 0.0 0.00 0.00 0.00 49 1015.9
20260510163048 75 136 0.0 0.0 0.00 0.00 0.00 49 1010.2
20260510161552 71 0 0.0 0.0 0.00 0.00 0.00 53 1015.7
20260510161543 71 136 0.0 0.0 0.00 0.00 0.00 54 1010.2
20260510160049 68 0 0.0 0.0 0.00 0.00 0.00 62 1015.8
20260510160045 68 136 0.0 0.0 0.00 0.00 0.00 62 1010.1
20260510154552 63 0 0.0 0.0 0.00 0.00 0.00 76 1015.7
20260510154536 63 136 0.0 0.0 0.00 0.00 0.00 77 1010.2
20260510153052 61 0 0.0 0.0 0.00 0.00 0.00 84 1015.8
20260510153030 61 136 0.0 0.0 0.00 0.00 0.00 85 1010.2
20260510151554 59 0 0.0 0.0 0.00 0.00 0.00 88 1015.9
20260510151527 59 136 0.0 0.0 0.00 0.00 0.00 88 1010.4
20260510150114 57 0 0.0 0.0 0.00 0.00 0.00 88 1016.0
20260510150026 57 136 0.0 0.0 0.00 0.00 0.00 89 1010.4
20260510144609 55 0 0.0 0.0 0.00 0.00 0.00 88 1015.9
20260510144527 55 136 0.0 0.0 0.00 0.00 0.00 89 1010.4
20260510143056 53 0 0.0 0.0 0.00 0.00 0.00 87 1015.9
20260510143030 53 136 0.0 0.0 0.00 0.00 0.00 87 1010.3
20260510141550 52 0 0.0 0.0 0.00 0.00 0.00 85 1016.0
20260510141522 52 136 0.0 0.0 0.00 0.00 0.00 86 1010.5
20260510140054 52 0 0.0 0.0 0.00 0.00 0.00 84 1016.1
20260510140019 52 136 0.0 0.0 0.00 0.00 0.00 85 1010.3
20260510134555 51 0 0.0 0.0 0.00 0.00 0.00 83 1015.9
20260510134521 51 136 0.0 0.0 0.00 0.00 0.00 83 1010.2
20260510133050 51 0 0.0 0.0 0.00 0.00 0.00 81 1015.7
20260510133020 51 136 0.0 0.0 0.00 0.00 0.00 82 1010.2
20260510131551 51 0 0.0 0.0 0.00 0.00 0.00 80 1015.6
20260510131513 51 136 0.0 0.0 0.00 0.00 0.00 81 1009.9
20260510130050 51 0 0.0 0.0 0.00 0.00 0.00 80 1015.4
20260510130011 51 136 0.0 0.0 0.00 0.00 0.00 80 1009.7
20260510124550 52 0 0.0 0.0 0.00 0.00 0.00 80 1015.4
20260510124510 52 136 0.0 0.0 0.00 0.00 0.00 80 1009.8
20260510123052 52 0 0.0 0.0 0.00 0.00 0.00 80 1015.3
20260510123009 52 136 0.0 0.0 0.00 0.00 0.00 80 1009.7
20260510121550 52 0 0.0 0.0 0.00 0.00 0.00 80 1015.4
20260510121507 52 136 0.0 0.0 0.00 0.00 0.00 80 1009.7
20260510120051 52 0 0.0 0.0 0.00 0.00 0.00 79 1015.5
20260510120007 52 136 0.0 0.0 0.00 0.00 0.00 80 1009.6
20260510114608 53 0 0.0 0.0 0.00 0.00 0.00 79 1015.5
20260510114505 53 136 0.0 0.0 0.00 0.00 0.00 80 1009.7
20260510113058 53 0 0.0 0.0 0.00 0.00 0.00 79 1015.4
20260510113004 53 136 0.0 0.0 0.00 0.00 0.00 80 1009.6
20260510111552 53 0 0.0 0.0 0.00 0.00 0.00 79 1015.5
20260510111502 53 136 0.0 0.0 0.00 0.00 0.00 79 1009.7
20260510110054 54 0 0.0 0.0 0.00 0.00 0.00 78 1015.6
20260510110003 54 136 0.0 0.0 0.00 0.00 0.00 79 1009.9
20260510104604 54 136 0.0 0.0 0.00 0.00 0.00 78 1009.8
20260510104600 54 0 0.0 0.0 0.00 0.00 0.00 78 1015.6
20260510103057 54 136 0.0 0.0 0.00 0.00 0.00 78 1009.7
20260510103054 54 0 0.0 0.0 0.00 0.00 0.00 78 1015.5
20260510101556 55 136 0.0 0.0 0.00 0.00 0.00 78 1009.7
20260510101548 55 0 0.0 0.0 0.00 0.00 0.00 78 1015.6
20260510100101 55 0 0.0 0.0 0.00 0.00 0.00 77 1015.6
20260510100056 55 136 0.0 0.0 0.00 0.00 0.00 77 1009.9
20260510094604 55 0 0.0 0.0 0.00 0.00 0.00 77 1015.6
20260510094553 55 136 0.0 0.0 0.00 0.00 0.00 77 1009.9
20260510093103 56 136 0.0 0.0 0.00 0.00 0.00 77 1009.9
20260510093053 56 0 0.0 0.0 0.00 0.00 0.00 76 1015.8
20260510091550 56 0 0.0 0.0 0.00 0.00 0.00 76 1015.8
20260510090056 56 136 0.0 0.0 0.00 0.00 0.00 76 1010.0
20260510090053 56 0 0.0 0.0 0.00 0.00 0.00 76 1015.8
20260510084552 57 0 0.0 0.0 0.00 0.00 0.00 76 1015.8
20260510084546 57 136 0.0 0.0 0.00 0.00 0.00 77 1010.0
20260510083053 57 136 0.0 0.0 0.00 0.00 0.00 77 1010.1
20260510083051 57 0 0.0 0.0 0.00 0.00 0.00 76 1015.9
20260510081559 57 0 0.0 0.0 0.00 0.00 0.00 76 1016.0
20260510081557 57 136 0.0 0.0 0.00 0.00 0.00 76 1010.2
20260510080100 58 0 0.0 0.0 0.00 0.00 0.00 76 1016.1
20260510080052 58 136 0.0 0.0 0.00 0.00 0.00 76 1010.3
20260510074607 59 0 0.0 0.0 0.00 0.00 0.00 77 1016.2
20260510074538 58 136 0.0 0.0 0.00 0.00 0.00 77 1010.5
20260510073052 59 0 0.0 0.0 0.00 0.00 0.00 77 1016.4
20260510073036 59 136 0.0 0.0 0.00 0.00 0.00 78 1010.6
20260510071603 60 0 0.0 0.0 0.00 0.00 0.00 78 1016.4
20260510071533 60 136 0.0 0.0 0.00 0.00 0.00 78 1010.6
20260510070109 60 0 0.0 0.0 0.00 0.00 0.00 78 1016.6
20260510070032 60 136 0.0 0.0 0.00 0.00 0.00 78 1010.6
20260510064602 60 0 0.0 0.0 0.00 0.00 0.00 77 1016.6
20260510064534 60 136 0.0 0.0 0.00 0.00 0.00 77 1010.6
20260510063102 61 0 0.0 0.0 0.00 0.00 0.00 75 1016.5
20260510063031 61 136 0.0 0.0 0.00 0.00 0.00 75 1010.6
20260510061553 61 0 0.0 0.0 0.00 0.00 0.00 74 1016.6
20260510061532 61 136 0.0 0.0 0.00 0.00 0.00 75 1010.6
20260510060054 62 0 0.0 0.0 0.00 0.00 0.00 73 1016.6
20260510060031 62 136 0.0 0.0 0.00 0.00 0.00 74 1010.6
20260510054601 62 0 0.0 0.0 0.00 0.00 0.00 73 1016.5
20260510054531 62 136 0.0 0.0 0.00 0.00 0.00 74 1010.6
20260510053055 62 0 0.0 0.0 0.00 0.00 0.00 72 1016.5
20260510053029 62 136 0.0 0.0 0.00 0.00 0.00 73 1010.6
20260510051600 63 0 0.0 0.0 0.00 0.00 0.00 72 1016.4
20260510051529 63 136 0.0 1.0 0.00 0.00 0.00 73 1010.6
20260510050058 64 0 0.0 1.0 0.00 0.00 0.00 71 1016.5
20260510050029 64 136 0.0 1.0 0.00 0.00 0.00 71 1010.5
20260510044603 64 0 0.0 3.0 0.00 0.00 0.00 69 1016.4
20260510044535 64 136 0.0 3.0 0.00 0.00 0.00 69 1010.4
20260510043104 65 0 0.0 2.0 0.00 0.00 0.00 67 1016.3
20260510043028 65 136 0.0 2.0 0.00 0.00 0.00 68 1010.3
20260510041559 65 0 0.0 1.0 0.00 0.00 0.00 65 1016.1
20260510041526 65 136 0.0 1.0 0.00 0.00 0.00 66 1010.2
20260510040052 66 0 0.0 2.0 0.00 0.00 0.00 63 1016.0
20260510040027 66 136 0.0 2.0 0.00 0.00 0.00 63 1010.1
20260510034557 66 0 0.0 2.0 0.00 0.00 0.00 60 1015.9
20260510034526 66 136 0.0 2.0 0.00 0.00 0.00 61 1010.0
20260510033123 67 0 0.0 2.0 0.00 0.00 0.00 58 1015.8
20260510033025 67 136 0.0 2.0 0.00 0.00 0.00 58 1010.0
20260510031610 68 0 0.0 3.0 0.00 0.00 0.00 55 1015.6
20260510031526 68 136 0.0 3.0 0.00 0.00 0.00 55 1009.6
20260510030034 69 136 0.0 2.0 0.00 0.00 0.00 51 1009.6
20260510024554 71 0 0.0 3.0 0.00 0.00 0.00 44 1015.4
20260510024525 71 134 0.0 3.0 0.00 0.00 0.00 45 1009.4
20260510023100 72 0 0.0 3.0 0.00 0.00 0.00 39 1015.0
20260510023023 72 138 0.0 3.0 0.00 0.00 0.00 39 1009.3
20260510021559 74 0 0.0 5.0 0.00 0.00 0.00 35 1014.9
20260510021527 74 152 0.0 4.0 0.00 0.00 0.00 36 1009.1
20260510020051 74 0 0.0 4.0 0.00 0.00 0.00 36 1014.8
20260510020026 74 161 0.0 3.0 0.00 0.00 0.00 36 1009.0
20260510014602 75 221 1.0 6.0 0.00 0.00 0.00 36 1014.8
20260510014522 75 221 1.0 5.0 0.00 0.00 0.00 36 1009.0
20260510013051 76 0 0.0 5.0 0.00 0.00 0.00 35 1014.7
20260510013023 76 203 0.0 4.0 0.00 0.00 0.00 36 1008.9
20260510011559 78 0 1.0 6.0 0.00 0.00 0.00 35 1014.7
20260510011520 78 219 2.0 6.0 0.00 0.00 0.00 36 1008.9
20260510010019 79 236 1.0 8.0 0.00 0.00 0.00 34 1008.8
20260510004558 79 0 2.0 5.0 0.00 0.00 0.00 29 1014.4
20260510004519 79 136 1.0 5.0 0.00 0.00 0.00 29 1008.6
20260510003101 80 149 2.0 9.0 0.00 0.00 0.00 30 1014.4
20260510003024 80 180 1.0 8.0 0.00 0.00 0.00 31 1008.5
20260510001553 82 133 1.0 8.0 0.00 0.00 0.00 32 1014.4
20260510001517 82 132 1.0 7.0 0.00 0.00 0.00 32 1008.5
20260510000054 83 126 2.0 10.0 0.00 0.00 0.00 32 1014.2
20260510000016 83 188 2.0 9.0 0.00 0.00 0.00 32 1008.4
20260509234606 84 217 2.0 8.0 0.00 0.00 0.00 31 1014.2
20260509234516 84 165 2.0 8.0 0.00 0.00 0.00 31 1008.4
20260509233053 85 0 2.0 9.0 0.00 0.00 0.00 30 1014.3
20260509233022 85 225 2.0 8.0 0.00 0.00 0.00 30 1008.4
20260509231556 86 146 1.0 7.0 0.00 0.00 0.00 28 1014.2
20260509231513 86 225 1.0 8.0 0.00 0.00 0.00 30 1008.3
20260509230052 87 167 0.0 11.0 0.00 0.00 0.00 28 1014.2
20260509230016 87 129 0.0 9.0 0.00 0.00 0.00 28 1008.4
20260509224550 88 0 1.0 11.0 0.00 0.00 0.00 28 1014.3
20260509224513 88 150 1.0 6.0 0.00 0.00 0.00 28 1008.4
20260509223056 88 144 2.0 8.0 0.00 0.00 0.00 27 1014.3
20260509223014 88 142 2.0 8.0 0.00 0.00 0.00 27 1008.4
20260509221552 89 221 1.0 8.0 0.00 0.00 0.00 26 1014.4
20260509221512 89 224 1.0 8.0 0.00 0.00 0.00 27 1008.5
20260509220100 89 0 0.0 6.0 0.00 0.00 0.00 27 1014.6
20260509220010 89 252 0.0 6.0 0.00 0.00 0.00 27 1008.8
20260509214552 89 132 1.0 6.0 0.00 0.00 0.00 25 1014.9
20260509214509 89 208 1.0 6.0 0.00 0.00 0.00 25 1008.9
20260509213050 89 198 1.0 7.0 0.00 0.00 0.00 25 1015.0
20260509213008 89 198 1.0 7.0 0.00 0.00 0.00 24 1009.1
20260509211553 89 0 2.0 9.0 0.00 0.00 0.00 27 1015.2
20260509211506 89 141 2.0 8.0 0.00 0.00 0.00 28 1009.2
20260509210058 89 221 0.0 5.0 0.00 0.00 0.00 29 1015.2
20260509210007 89 223 0.0 7.0 0.00 0.00 0.00 31 1009.4